Jefferson, NC

8:37 AM EST on November 19, 2019 (GMT -0500)
Ashe County

Weather History for KGEV - September, 2019

Change the Weather History Date:

Thursday, September 19, 2019

  Actual Average Record
Temperature  
Mean Temperature 54 °F -  
Max Temperature 57 °F 73 °F 82 °F (1970)
Min Temperature 50 °F 52 °F 37 °F (1985)
Degree Days  
Heating Degree Days 12    
Growing Degree Days 4 (Base 50)    
Moisture  
Dew Point 52 °F    
Average Humidity 91    
Maximum Humidity 100    
Minimum Humidity 81    
Precipitation  
Precipitation 0.00 in - - ()
Sea Level Pressure  
Sea Level Pressure 30.32 in    
Wind  
Wind Speed 2 mph ()    
Max Wind Speed 7 mph    
Max Gust Speed -    
Visibility 9.7 miles    
Events      
Averages and records for this station are not official NWS values.
T = Trace of Precipitation, MM = Missing Value Source: Averaged Metar Reports

Daily Weather History Graph

Daily Weather History Graph

Search for Another Location

Airport or City:

Astronomy

Sep. 19, 2019 Rise Set
Actual Time 7:11 AM EDT 7:27 PM EDT
Civil Twilight 6:45 AM EDT 7:53 PM EDT
Nautical Twilight 6:15 AM EDT 8:23 PM EDT
Astronomical Twilight 5:44 AM EDT 8:53 PM EDT
Moon 10:44 PM EDT 12:05 PM EDT
Length of Visible Light 13h 07m
Length of Day
12h 16m
Waning Gibbous, 74% of the Moon is Illuminated
Sep 19
Waning Gibbous
Sep 21
Last Quarter
Sep 28
New
Oct 5
First Quarter
Oct 13
Full

Hourly Weather History & Observations

Time (EDT) Temp. Dew Point Humidity Pressure Visibility Wind Dir Wind Speed Gust Speed Precip Events Conditions
12:15 AM 57.6 °F 56.8 °F 97% 30.28 in 10.0 mi Calm Calm - N/A   Overcast
12:55 AM 57.4 °F 56.7 °F 97% 30.28 in 10.0 mi Calm Calm - N/A   Overcast
1:15 AM 57.6 °F 56.7 °F 97% 30.28 in 10.0 mi Calm Calm - N/A   Overcast
1:35 AM 57.4 °F 56.7 °F 97% 30.28 in 10.0 mi Calm Calm - N/A   Overcast
1:55 AM 57.2 °F 55.8 °F 95% 30.28 in 10.0 mi Calm Calm - N/A   Overcast
2:15 AM 56.8 °F 54.7 °F 92% 30.29 in 10.0 mi Calm Calm - N/A   Overcast
2:35 AM 56.7 °F 54.5 °F 92% 30.28 in 10.0 mi WSW 4.6 mph - N/A   Overcast
3:15 AM 56.3 °F 53.8 °F 91% 30.29 in 10.0 mi WSW 4.6 mph - N/A   Overcast
3:35 AM 55.9 °F 53.6 °F 92% 30.29 in 10.0 mi WSW 3.5 mph - N/A   Overcast
3:55 AM 55.8 °F 53.6 °F 92% 30.28 in 10.0 mi WSW 3.5 mph - N/A   Overcast
4:15 AM 55.6 °F 53.2 °F 92% 30.29 in 10.0 mi Calm Calm - N/A   Overcast
4:35 AM 55.2 °F 52.7 °F 91% 30.29 in 10.0 mi WSW 3.5 mph - N/A   Overcast
4:55 AM 54.7 °F 52.3 °F 92% 30.29 in 10.0 mi Calm Calm - N/A   Overcast
5:15 AM 53.8 °F 52.0 °F 94% 30.28 in 10.0 mi WSW 3.5 mph - N/A   Overcast
5:35 AM 53.6 °F 52.0 °F 94% 30.29 in 10.0 mi WSW 3.5 mph - N/A   Overcast
5:55 AM 53.6 °F 52.2 °F 95% 30.29 in 10.0 mi WSW 3.5 mph - N/A   Overcast
6:15 AM 53.6 °F 52.2 °F 95% 30.30 in 10.0 mi Calm Calm - N/A   Overcast
6:35 AM 53.6 °F 52.3 °F 95% 30.30 in 10.0 mi Calm Calm - N/A   Overcast
6:55 AM 53.2 °F 52.0 °F 95% 30.31 in 10.0 mi WSW 4.6 mph - N/A   Overcast
7:15 AM 52.9 °F 51.8 °F 96% 30.31 in 10.0 mi WSW 4.6 mph - N/A   Overcast
7:35 AM 52.7 °F 51.8 °F 97% 30.31 in 10.0 mi Calm Calm - N/A   Overcast
7:55 AM 52.7 °F 51.8 °F 97% 30.32 in 10.0 mi WSW 3.5 mph - N/A   Overcast
8:15 AM 52.3 °F 51.8 °F 98% 30.32 in 10.0 mi Calm Calm - N/A   Overcast
8:35 AM 52.5 °F 52.0 °F 98% 30.33 in 10.0 mi WSW 3.5 mph - N/A   Overcast
8:55 AM 52.7 °F 51.8 °F 97% 30.33 in 10.0 mi Calm Calm - N/A   Overcast
9:15 AM 52.5 °F 51.6 °F 97% 30.34 in 10.0 mi WSW 4.6 mph - N/A   Overcast
9:55 AM 52.5 °F 51.4 °F 96% 30.35 in 10.0 mi Calm Calm - N/A   Overcast
10:15 AM 52.7 °F 50.9 °F 94% 30.35 in 10.0 mi WSW 3.5 mph - N/A   Overcast
10:35 AM 53.6 °F 50.9 °F 91% 30.35 in 10.0 mi WSW 3.5 mph - N/A   Overcast
10:55 AM 54.5 °F 51.4 °F 89% 30.35 in 10.0 mi WSW 4.6 mph - N/A   Overcast
11:15 AM 54.7 °F 51.3 °F 88% 30.36 in 10.0 mi WSW 4.6 mph - N/A   Overcast
11:35 AM 54.9 °F 51.3 °F 88% 30.36 in 10.0 mi WSW 3.5 mph - N/A   Overcast
11:55 AM 55.0 °F 51.4 °F 88% 30.36 in 10.0 mi WSW 3.5 mph - N/A   Overcast
12:15 PM 56.1 °F 51.6 °F 85% 30.36 in 10.0 mi WSW 3.5 mph - N/A   Overcast
12:35 PM 56.3 °F 51.4 °F 84% 30.36 in 10.0 mi WSW 4.6 mph - N/A   Overcast
12:55 PM 55.9 °F 50.7 °F 83% 30.36 in 10.0 mi WSW 4.6 mph - N/A   Overcast
1:15 PM 56.5 °F 50.9 °F 82% 30.35 in 10.0 mi Calm Calm - N/A   Overcast
1:35 PM 56.7 °F 50.9 °F 81% 30.34 in 10.0 mi WSW 3.5 mph - N/A   Overcast
1:55 PM 55.6 °F 50.9 °F 84% 30.35 in 10.0 mi WSW 3.5 mph - N/A   Overcast
2:35 PM 56.3 °F 51.3 °F 83% 30.33 in 10.0 mi WSW 3.5 mph - N/A   Overcast
2:55 PM 56.5 °F 50.9 °F 82% 30.33 in 10.0 mi WSW 4.6 mph - N/A   Overcast
3:15 PM 56.7 °F 51.3 °F 82% 30.33 in 10.0 mi WSW 3.5 mph - N/A   Overcast
3:35 PM 56.7 °F 52.2 °F 85% 30.33 in 10.0 mi WSW 6.9 mph - N/A   Overcast
3:55 PM 55.8 °F 51.3 °F 85% 30.32 in 10.0 mi Calm Calm - N/A   Overcast
4:15 PM 57.0 °F 51.8 °F 83% 30.31 in 10.0 mi WSW 3.5 mph - N/A   Overcast
4:35 PM 56.5 °F 51.8 °F 84% 30.32 in 10.0 mi Calm Calm - N/A   Overcast
4:55 PM 56.3 °F 51.6 °F 84% 30.31 in 10.0 mi Calm Calm - N/A   Overcast
5:15 PM 56.5 °F 51.8 °F 84% 30.31 in 10.0 mi WSW 3.5 mph - N/A   Overcast
5:35 PM 56.5 °F 51.6 °F 84% 30.31 in 10.0 mi Calm Calm - N/A   Overcast
5:55 PM 56.8 °F 52.2 °F 84% 30.31 in 10.0 mi Calm Calm - N/A   Overcast
6:15 PM 56.7 °F 51.8 °F 84% 30.31 in 10.0 mi WSW 3.5 mph - N/A   Overcast
6:35 PM 56.7 °F 52.2 °F 85% 30.31 in 10.0 mi Calm Calm - N/A   Overcast
6:55 PM 55.9 °F 51.8 °F 86% 30.31 in 10.0 mi Calm Calm - N/A   Overcast
7:15 PM 55.4 °F 52.2 °F 89% 30.31 in 10.0 mi Calm Calm - N/A   Overcast
7:55 PM 55.0 °F 52.0 °F 89% 30.31 in 10.0 mi Calm Calm - N/A   Overcast
8:15 PM 54.9 °F 52.0 °F 90% 30.31 in 10.0 mi Calm Calm - N/A   Overcast
8:35 PM 54.7 °F 52.0 °F 91% 30.32 in 10.0 mi Calm Calm - N/A   Overcast
8:55 PM 55.0 °F 52.0 °F 89% 30.33 in 10.0 mi Calm Calm - N/A   Mostly Cloudy
9:15 PM 55.4 °F 51.3 °F 86% 30.33 in 10.0 mi Calm Calm - N/A   Scattered Clouds
9:35 PM 54.5 °F 51.8 °F 91% 30.33 in 10.0 mi Calm Calm - N/A   Clear
9:55 PM 53.6 °F 52.2 °F 95% 30.34 in 10.0 mi Calm Calm - N/A   Clear
10:15 PM 53.1 °F 52.3 °F 97% 30.35 in 10.0 mi Calm Calm - N/A   Clear
10:35 PM 52.2 °F 51.8 °F 99% 30.35 in 10.0 mi Calm Calm - N/A   Clear
10:55 PM 51.3 °F 51.1 °F 99% 30.35 in 1.5 mi Calm Calm - N/A   Mist
11:15 PM 50.9 °F 50.9 °F 100% 30.35 in 7.0 mi Calm Calm - N/A   Clear
11:35 PM 50.9 °F 50.9 °F 100% 30.34 in 1.8 mi Calm Calm - N/A   Mostly Cloudy